Погода в Переволоках

Россия / Самарская область     53°14′54″N   49°10′30″E
темп.,
°C
ветер,
м/с
пор.,
м/с
влажн.,
%
обл.,
%
осадки,
мм/ч
давл.,
гПа
погр.,
м
2 марта, вт
вт201:00−15ююз239986 0.0 102028
04:00−14ююз489693 0.0 1017157
07:00−11ююз61295100 0.0 1013291
10:00−7юз81495100 1.8 1010636
13:00−1зюз81494100 1.1 1007851
16:000зюз81397100 1.9 1004770
19:00−1юз61297100 1.7 1003578
22:000з4898100 2.0 1003390
3 марта, ср
ср301:00−4сз339296 0.2 100246
04:00−7сз229580 0.2 100421
07:00−8зсз229673 0.0 100321
10:00−5сз489277 0.1 1005325
13:00−3сз698833 0.0 1005606
16:00−4сз698663 0.0 1006779
19:00−7зсз3791100 0.1 1007198
22:00−10сз499182 0.1 1009188
4 марта, чт
чт401:00−12зсз239431 0.0 100928
04:00−13зюз339616 0.0 100929
07:00−11юз489666 0.0 1008150
10:00−6юз5119283 0.0 1007507
13:00−1юз81286100 0.0 1005963
16:00−1юз91597100 0.8 1003990
19:00+1зюз81490100 0.8 1002943
22:000зюз71489100 0.8 1002880
5 марта, пт
пт501:000юз71390100 0.1 1001722
04:00−1юз71489100 0.1 1000537
07:00−1юз71395100 0.4 999663
10:00+1юз815100100 1.2 999688
13:00+1зсз610100100 0.3 1001482
16:00−2ссз6888100 0.3 1005676
19:00−7с359250 0.0 100967
22:00−10с228825 0.0 101221
6 марта, сб
сб601:00−12сз119317 0.0 101421
04:00−12с019148 0.0 101521
07:00−12в1189100 0.0 101521
10:00−8вюв2388100 0.0 1013185
13:00−6св2387100 0.1 1011373
16:00−6с4592100 0.3 1010286
19:00−9с3491100 0.1 101084
22:00−13ссз239054 0.1 101221